User: anonymous
Location: Bangkok
(13.7500°N, 100.5170°E)
Time: 20:31:38
(UTC+07:00)
Language:

ERBS - Orbit

View from above orbital plane
View from above orbital plane
View from above satellite
View from above satellite

Ground track
Ground track

The orbit data is extracted from the following two-line orbital elements,

1 15354U 84108B   14292.45346826  .00016233  00000-0  55597-3 0  6171
2 15354 057.0142 330.4568 0021681 072.5120 287.8296 15.30211725648639
Epoch (UTC): 19 October 2014 10:52:59
Eccentricity: 0.0021681
inclination: 57.0142°
perigee height: 460 km
apogee height: 490 km
right ascension of ascending node: 330.4568°
argument of perigee: 72.5120°
revolutions per day: 15.30211725
mean anomaly at epoch: 287.8296°
orbit number at epoch: 64863

The dashed part of the orbit path shows where the satellite is in the earth's shadow,  

DLR